Chipley, FL

11:24 PM CDT on March 23, 2017 (GMT -0500)
Chipley

Weather History for KVSH - February, 2013

Change the Weather History Date:

Saturday, February 9, 2013

  Actual Average (KDHN) Record (KDHN)
Temperature  
Mean Temperature 58 °F -  
Max Temperature 64 °F 57 °F 82 °F (1957)
Min Temperature 53 °F 41 °F 24 °F (1947)
Degree Days  
Heating Degree Days 6    
Growing Degree Days 8 (Base 50)    
Moisture  
Dew Point 52 °F    
Average Humidity 78    
Maximum Humidity 88    
Minimum Humidity 72    
Precipitation  
Precipitation 0.00 in - - ()
Sea Level Pressure  
Sea Level Pressure 30.15 in    
Wind  
Wind Speed 6 mph (ENE)    
Max Wind Speed 10 mph    
Max Gust Speed 20 mph    
Visibility 10 miles    
Events      
Averages and records for this station are not official NWS values.
T = Trace of Precipitation, MM = Missing Value Source: NWS Daily Summary

Daily Weather History Graph

Daily Weather History Graph

Search for Another Location

Airport or City:

Trip Planner

Search our weather history database for the weather conditions in past years. The results will help you decide how hot, cold, wet, or windy it might be!

Date:

Astronomy

Feb. 09, 2013 Rise Set
Actual Time 6:28 AM CST 5:25 PM CST
Civil Twilight 6:03 AM CST 5:50 PM CST
Nautical Twilight 5:34 AM CST 6:18 PM CST
Astronomical Twilight 5:06 AM CST 6:47 PM CST
Moon 5:39 AM CST (2/9) 5:05 PM CST (2/9)
Length of Visible Light 11h 47m
Length of Day
10h 57m
Waning Crescent, 0% of the Moon is Illuminated
Feb 9
Waning Crescent
Feb 10
New
Feb 17
First Quarter
Feb 25
Full
Mar 4
Last Quarter

Hourly Weather History & Observations

Time (CST) Temp. Dew Point Humidity Pressure Visibility Wind Dir Wind Speed Gust Speed Precip Events Conditions
12:15 AM 57.2 °F 51.8 °F 82% 30.17 in 10.0 mi NE 4.6 mph - N/A   Scattered Clouds
12:35 AM 57.2 °F 50.0 °F 77% 30.17 in 10.0 mi NNE 8.1 mph - N/A   Mostly Cloudy
12:55 AM 57.2 °F 48.2 °F 72% 30.17 in 10.0 mi NE 4.6 mph - N/A   Overcast
1:15 AM 55.4 °F 48.2 °F 77% 30.17 in 10.0 mi NE 10.4 mph 19.6 mph N/A   Overcast
1:35 AM 55.4 °F 48.2 °F 77% 30.17 in 10.0 mi NE 6.9 mph 17.3 mph N/A   Mostly Cloudy
1:55 AM 55.4 °F 48.2 °F 77% 30.17 in 10.0 mi NE 10.4 mph 17.3 mph N/A   Mostly Cloudy
2:15 AM 55.4 °F 48.2 °F 77% 30.17 in 10.0 mi NNE 5.8 mph - N/A   Overcast
2:35 AM 55.4 °F 46.4 °F 72% 30.17 in 10.0 mi NE 6.9 mph - N/A   Overcast
2:55 AM 55.4 °F 46.4 °F 72% 30.17 in 10.0 mi NE 8.1 mph - N/A   Scattered Clouds
3:15 AM 53.6 °F 46.4 °F 77% 30.17 in 10.0 mi NE 5.8 mph 16.1 mph N/A   Clear
3:35 AM 53.6 °F 46.4 °F 77% 30.18 in 10.0 mi NE 5.8 mph - N/A   Scattered Clouds
3:55 AM 53.6 °F 46.4 °F 77% 30.18 in 10.0 mi NNE 5.8 mph - N/A   Overcast
4:15 AM 53.6 °F 46.4 °F 77% 30.17 in 10.0 mi NNE 8.1 mph - N/A   Overcast
4:35 AM 55.4 °F 46.4 °F 72% 30.17 in 10.0 mi NE 5.8 mph - N/A   Overcast
4:55 AM 55.4 °F 46.4 °F 72% 30.18 in 10.0 mi NE 6.9 mph - N/A   Overcast
5:15 AM 55.4 °F 46.4 °F 72% 30.18 in 10.0 mi NE 6.9 mph - N/A   Overcast
5:35 AM 53.6 °F 46.4 °F 77% 30.18 in 10.0 mi ENE 6.9 mph - N/A   Overcast
5:55 AM 53.6 °F 46.4 °F 77% 30.18 in 10.0 mi NE 6.9 mph - N/A   Overcast
6:15 AM 53.6 °F 46.4 °F 77% 30.18 in 10.0 mi NE 6.9 mph - N/A   Overcast
6:35 AM 53.6 °F 46.4 °F 77% 30.19 in 10.0 mi NNE 6.9 mph - N/A   Overcast
6:55 AM 53.6 °F 46.4 °F 77% 30.20 in 10.0 mi ENE 5.8 mph - N/A   Overcast
7:15 AM 53.6 °F 48.2 °F 82% 30.20 in 10.0 mi NE 4.6 mph - N/A   Overcast
7:35 AM 53.6 °F 48.2 °F 82% 30.20 in 10.0 mi NE 5.8 mph - N/A   Overcast
7:55 AM 53.6 °F 48.2 °F 82% 30.21 in 10.0 mi NE 6.9 mph - N/A   Overcast
8:15 AM 55.4 °F 48.2 °F 77% 30.22 in 10.0 mi NNE 4.6 mph - N/A   Overcast
8:35 AM 55.4 °F 48.2 °F 77% 30.21 in 10.0 mi ENE 4.6 mph - N/A   Overcast
8:55 AM 55.4 °F 50.0 °F 82% 30.22 in 10.0 mi NE 3.5 mph - N/A   Overcast
9:15 AM 57.2 °F 51.8 °F 82% 30.22 in 10.0 mi NE 6.9 mph - N/A   Overcast
9:35 AM 57.2 °F 51.8 °F 82% 30.22 in 10.0 mi ENE 6.9 mph - N/A   Overcast
9:55 AM 57.2 °F 51.8 °F 82% 30.23 in 10.0 mi NE 4.6 mph - N/A   Overcast
10:15 AM 57.2 °F 51.8 °F 82% 30.23 in 10.0 mi ENE 4.6 mph - N/A   Overcast
10:35 AM 59.0 °F 51.8 °F 77% 30.23 in 10.0 mi ENE 4.6 mph - N/A   Overcast
10:55 AM 59.0 °F 51.8 °F 77% 30.23 in 10.0 mi NE 5.8 mph - N/A   Overcast
11:15 AM 60.8 °F 51.8 °F 72% 30.22 in 10.0 mi Calm Calm - N/A   Overcast
11:35 AM 60.8 °F 53.6 °F 77% 30.21 in 10.0 mi NE 6.9 mph - N/A   Overcast
11:55 AM 60.8 °F 53.6 °F 77% 30.21 in 10.0 mi ENE 6.9 mph - N/A   Overcast
12:15 PM 60.8 °F 53.6 °F 77% 30.20 in 10.0 mi NE 6.9 mph - N/A   Overcast
12:35 PM 60.8 °F 53.6 °F 77% 30.19 in 10.0 mi East 6.9 mph - N/A   Overcast
12:55 PM 60.8 °F 53.6 °F 77% 30.17 in 10.0 mi East 4.6 mph - N/A   Overcast
1:15 PM 60.8 °F 53.6 °F 77% 30.16 in 10.0 mi East 4.6 mph - N/A   Overcast
1:35 PM 62.6 °F 53.6 °F 72% 30.15 in 10.0 mi ENE 4.6 mph - N/A   Overcast
1:55 PM 62.6 °F 53.6 °F 72% 30.14 in 10.0 mi East 9.2 mph - N/A   Overcast
2:15 PM 62.6 °F 53.6 °F 72% 30.14 in 10.0 mi East 8.1 mph - N/A   Overcast
2:35 PM 62.6 °F 55.4 °F 77% 30.13 in 10.0 mi East 5.8 mph - N/A   Overcast
2:55 PM 62.6 °F 55.4 °F 77% 30.12 in 10.0 mi East 5.8 mph - N/A   Overcast
3:15 PM 62.6 °F 55.4 °F 77% 30.12 in 10.0 mi East 6.9 mph - N/A   Overcast
3:35 PM 62.6 °F 55.4 °F 77% 30.12 in 10.0 mi ENE 4.6 mph - N/A   Overcast
3:55 PM 64.4 °F 55.4 °F 73% 30.11 in 10.0 mi ENE 3.5 mph - N/A   Overcast
4:15 PM 64.4 °F 55.4 °F 73% 30.11 in 10.0 mi NE 5.8 mph - N/A   Overcast
4:35 PM 64.4 °F 55.4 °F 73% 30.11 in 10.0 mi ENE 4.6 mph - N/A   Overcast
4:55 PM 64.4 °F 55.4 °F 73% 30.11 in 10.0 mi East 4.6 mph - N/A   Overcast
5:15 PM 64.4 °F 55.4 °F 73% 30.11 in 10.0 mi ENE 4.6 mph - N/A   Overcast
5:35 PM 64.4 °F 55.4 °F 73% 30.10 in 10.0 mi East 4.6 mph - N/A   Overcast
5:55 PM 64.4 °F 55.4 °F 73% 30.11 in 10.0 mi East 6.9 mph - N/A   Overcast
6:15 PM 62.6 °F 55.4 °F 77% 30.11 in 10.0 mi ENE 4.6 mph - N/A   Overcast
6:35 PM 62.6 °F 55.4 °F 77% 30.11 in 10.0 mi East 4.6 mph - N/A   Overcast
6:55 PM 62.6 °F 57.2 °F 82% 30.12 in 10.0 mi ENE 5.8 mph - N/A   Overcast
7:35 PM 62.6 °F 57.2 °F 82% 30.11 in 10.0 mi East 5.8 mph - N/A   Mostly Cloudy
7:55 PM 62.6 °F 57.2 °F 82% 30.11 in 10.0 mi East 8.1 mph - N/A   Scattered Clouds
8:15 PM 62.6 °F 57.2 °F 82% 30.11 in 10.0 mi East 6.9 mph - N/A   Scattered Clouds
8:35 PM 62.6 °F 57.2 °F 82% 30.10 in 10.0 mi East 8.1 mph 16.1 mph N/A   Scattered Clouds
8:55 PM 62.6 °F 57.2 °F 82% 30.10 in 10.0 mi East 8.1 mph 18.4 mph N/A   Clear
9:15 PM 62.6 °F 57.2 °F 82% 30.09 in 10.0 mi East 10.4 mph 16.1 mph N/A   Clear
9:35 PM 62.6 °F 57.2 °F 82% 30.09 in 10.0 mi East 5.8 mph - N/A   Scattered Clouds
9:55 PM 62.6 °F 57.2 °F 82% 30.09 in 10.0 mi East 6.9 mph - N/A   Overcast
10:15 PM 62.6 °F 57.2 °F 82% 30.08 in 10.0 mi East 4.6 mph - N/A   Overcast
10:35 PM 62.6 °F 57.2 °F 82% 30.07 in 10.0 mi East 3.5 mph - N/A   Mostly Cloudy
10:55 PM 62.6 °F 59.0 °F 88% 30.06 in 10.0 mi East 8.1 mph - N/A   Mostly Cloudy
11:15 PM 64.4 °F 59.0 °F 83% 30.05 in 10.0 mi East 6.9 mph - N/A   Overcast
11:35 PM 64.4 °F 59.0 °F 83% 30.04 in 10.0 mi ESE 4.6 mph - N/A   Overcast
11:55 PM 64.4 °F 60.8 °F 88% 30.05 in 10.0 mi SE 4.6 mph - N/A   Overcast